FENGYUN 1C DEB, 38722

Orbit data source: Space-Track

FENGYUN 1C DEB, 38722 is space debris in SSO originally from a launch on Mon, 10 May 1999 UTC launched from the Taiyaun Space Center, China (TSC). Fengyun 1C debris stems from the Chinese weather satellite Fengyun-1C, which was intentionally destroyed by a Chinese anti-satellite missile in 2007. This event dramatically increased the amount of space debris, with thousands of trackable fragments posing hazards to satellites and human spaceflight. The Fengyun 1C debris cloud has become a focal point in discussions about space sustainability and the need for international regulations to prevent the creation of new debris.

Loading next visibility...
Identifier
38722, 1999-025ETP
Orbit
SSO
Country
Flag of CNCN / PRC
Related business
Manufacturer
Unknown
Mission
Spacecraft
Bus & Motor
Unknown
Mass
Unknown
Launch date (UTC)
1999-05-10 (27 years ago)
Launch vehicle
Unknown
Launch site
Taiyaun Space Center, China (TSC)
Object type
Payload
Rocket body
Debris
Shape & HBR
Unknown shape, 0.1 m
Radar Cross Section
Small (<0.1 m²)

Expand to show TLE details & history
Last TLE update: 2 weeks ago

TLE from 2 weeks ago
0 FENGYUN 1C DEB
1 38722U 99025ETP 26222.63704974  .00005131  00000-0  83989-3 0  9991
2 38722  99.3606 357.6574 0131756  86.5604 275.0656 14.65681784739848
Epoch: 2026-08-10T15:17Z
TLE epoch observation values (Epoch: 2026-08-10T15:17:21.097Z)
Latitude
-0°
Longitude
169.20266°
Altitude
670.853 km
Speed
7.525 km/s
True Right ascension
23h 50m 37s
True Declination
0° 00' 00"
Sunlit
Object was in full shadow at epoch
Visualization orbit readout
Latitude
Unknown
Longitude
Unknown
Altitude
Unknown
Speed
Unknown
Apparent Right ascension
Unknown
Apparent Declination
Unknown
Sunlit
N/A
Visualization observer readout
Local Sidereal Time
14:40:07
Azimuth
Unknown
Elevation
Unknown
Doppler factor
Unknown
Orbital elements
Apogee altitude
764.907 km
Perigee altitude
579.127 km
Semi-major axis
7,050.154 km
Eccentricity
0.01318
Inclination
99.3606°
RAAN
357.6574°
Arg. of periapsis
86.5604°
True anomaly
273.55967°
Mean anomaly
275.0656°
Eccentric anomaly
274.31283°
Mean motion
3.66645 °/min
Orbital period
98.19 mins
BSTAR
0.00083989
Loading maneuver chart data...
Computing Atmospheric mass density...
Loading historical data...
Loading historical data...
Loading historical data...
Loading historical data...
Loading historical data...
Loading historical data...
Loading historical data...

Documentation

Showing up to 5 results
|